Date,TemperatureHighF,TemperatureAvgF,TemperatureLowF,DewpointHighF,DewpointAvgF,DewpointLowF,HumidityHigh,HumidityAvg,HumidityLow,PressureMaxIn,PressureMinIn,WindSpeedMaxMPH,WindSpeedAvgMPH,GustSpeedMaxMPH,PrecipitationSumIn
2013-12-1,46.0,38.9,32.0,40.6,36.3,31.2,99,91,72,30.36,30.00,9,1,9,0.00
2013-12-2,45.8,42.3,38.0,42.8,40.0,37.0,99,92,82,30.01,29.86,6,1,6,0.00
2013-12-3,52.8,45.9,41.8,44.7,41.7,39.1,94,86,66,29.99,29.86,9,1,11,0.00
2013-12-4,52.7,48.5,44.1,52.4,47.2,42.1,100,95,89,30.08,29.98,11,2,11,0.00
2013-12-5,59.4,53.4,46.8,59.4,53.4,46.8,100,100,97,30.08,29.94,21,6,21,0.00
2013-12-6,60.8,50.6,40.0,60.8,50.6,40.0,100,100,100,30.14,29.89,23,5,23,0.47
2013-12-7,44.3,40.2,35.6,40.0,36.0,27.8,100,86,73,30.52,30.09,22,6,22,0.30
2013-12-8,35.6,32.6,29.8,33.4,29.1,24.9,99,87,73,30.57,30.25,13,2,13,0.34
2013-12-9,39.2,36.7,33.7,37.9,36.2,33.4,100,98,95,30.26,30.02,18,5,18,0.86
2013-12-10,39.9,37.2,34.9,36.6,34.7,29.3,99,91,70,30.22,29.96,25,8,25,0.34
2013-12-11,41.1,37.4,34.4,35.1,29.8,24.6,91,74,65,30.41,30.22,21,7,21,0.00
2013-12-12,39.5,32.7,29.5,32.4,23.7,18.4,92,69,57,30.42,30.23,30,10,30,0.00
2013-12-13,42.4,38.5,34.6,33.6,29.4,25.5,89,70,57,30.30,30.21,18,6,18,0.00
2013-12-14,47.5,39.8,35.3,47.5,37.6,33.2,100,92,80,30.33,29.66,25,2,25,0.76
2013-12-15,45.5,40.7,37.6,41.6,36.8,30.3,100,86,73,29.95,29.61,28,14,28,0.01
2013-12-16,38.9,36.0,31.9,33.6,29.2,25.4,83,76,69,30.20,29.94,26,5,26,0.00
2013-12-17,40.7,36.7,34.1,38.6,34.1,28.0,97,90,78,30.17,29.93,13,1,13,0.05
2013-12-18,40.7,36.9,32.4,35.4,31.7,28.4,97,82,66,30.23,29.97,27,9,27,0.02
2013-12-19,51.4,43.5,32.8,42.2,37.5,31.3,95,80,65,30.21,30.08,21,9,21,0.00
2013-12-20,53.5,48.8,45.5,51.4,44.2,39.1,95,84,73,30.12,30.00,19,8,19,0.00
2013-12-21,62.3,55.4,48.1,59.9,52.4,45.8,96,90,83,30.04,29.92,24,10,24,0.00
2013-12-22,61.7,55.4,50.0,60.6,55.2,49.7,100,99,95,30.04,29.88,30,9,30,0.28
2013-12-23,62.0,52.6,42.7,62.0,51.7,36.6,100,97,79,30.21,29.93,26,7,26,0.38
2013-12-24,42.7,38.0,29.0,37.0,30.3,19.3,83,73,63,30.45,30.17,37,16,37,0.00
2013-12-25,32.0,28.8,25.4,27.2,21.0,17.2,86,72,64,30.57,30.40,27,6,27,0.00
2013-12-26,42.8,37.3,30.9,38.2,31.4,27.2,90,79,63,30.40,30.22,16,6,16,0.00
2013-12-27,44.1,40.7,34.3,39.7,34.4,28.0,93,78,62,30.43,30.33,18,6,20,0.00
2013-12-28,49.6,44.2,39.9,40.8,37.7,34.3,86,78,65,30.33,30.12,18,8,18,0.00
2013-12-29,52.9,45.7,42.9,52.9,43.6,37.0,100,93,65,30.12,29.50,21,6,21,0.84
2013-12-30,45.8,41.5,34.2,43.9,37.7,27.5,98,87,73,30.18,29.82,15,3,19,0.00
2013-12-31,45.0,37.1,31.5,37.1,29.1,24.2,86,73,64,30.33,30.11,30,10,30,0.00